E25RIV-1 Weather Reports


time (UTC)temp
C
wind
direction
speed
KPH
gust
KPH
rain 1hr
cm
rain 24hr
cm
rain mn
cm
humidity
%
barometer
mb
20260504182324 26 0 0.0 0.0 0.00 0.00 0.00 99 1006.0
20260504181300 26 0 0.0 0.0 0.00 0.00 0.00 99 1006.0
20260504180236 25 0 0.0 0.0 0.00 0.00 0.00 99 1006.0
20260504175212 25 0 0.0 0.0 0.00 0.00 0.00 99 1006.0
20260504174148 25 0 0.0 0.0 0.00 0.00 0.00 99 1006.0
20260504173124 26 0 0.0 0.0 0.00 0.00 0.00 99 1006.0
20260504172100 26 0 0.0 0.0 0.00 0.00 0.00 99 1006.0
20260504171036 25 0 0.0 0.0 0.00 0.00 0.00 99 1007.0
20260504150548 26 0 0.0 0.0 0.00 0.00 0.00 99 1007.0
20260504140324 26 0 0.0 0.0 0.00 0.00 0.00 99 1005.0
20260504110637 25 0 0.0 0.0 0.00 0.00 0.00 99 1003.0
20260504050436 37 0 0.0 0.0 0.00 0.00 0.00 50 994.0
20260504045411 37 0 0.0 0.0 0.00 0.00 0.00 52 995.0
20260504044348 37 0 0.0 0.0 0.00 0.00 0.00 51 994.0
20260504043324 37 0 0.0 0.0 0.00 0.00 0.00 52 995.0
20260504042300 36 0 0.0 0.0 0.00 0.00 0.00 52 995.0
20260504041236 37 0 0.0 0.0 0.00 0.00 0.00 51 995.0
20260504040211 36 0 0.0 0.0 0.00 0.00 0.00 54 997.0
20260504035147 36 0 0.0 0.0 0.00 0.00 0.00 55 997.0
20260504034124 36 0 0.0 0.0 0.00 0.00 0.00 55 997.0
20260504033100 36 0 0.0 0.0 0.00 0.00 0.00 57 998.0
20260504032036 36 0 0.0 0.0 0.00 0.00 0.00 54 997.0
20260504031011 37 0 0.0 0.0 0.00 0.00 0.00 52 995.0
20260504025948 37 0 0.0 0.0 0.00 0.00 0.00 54 996.0
20260504024924 36 0 0.0 0.0 0.00 0.00 0.00 60 999.0
20260504023900 35 0 0.0 0.0 0.00 0.00 0.00 63 1000.0
20260504022836 35 0 0.0 0.0 0.00 0.00 0.00 65 1001.0
20260504021811 35 0 0.0 0.0 0.00 0.00 0.00 67 1002.0
20260504020747 35 0 0.0 0.0 0.00 0.00 0.00 69 1002.0
20260504015723 34 0 0.0 0.0 0.00 0.00 0.00 70 1002.0
20260504014659 34 0 0.0 0.0 0.00 0.00 0.00 71 1003.0
20260504013635 34 0 0.0 0.0 0.00 0.00 0.00 71 1002.0
20260504012611 33 0 0.0 0.0 0.00 0.00 0.00 76 1004.0
20260504011547 33 0 0.0 0.0 0.00 0.00 0.00 74 1003.0
20260504010523 34 0 0.0 0.0 0.00 0.00 0.00 72 1003.0
20260504005459 35 0 0.0 0.0 0.00 0.00 0.00 72 1002.0
20260504004435 34 0 0.0 0.0 0.00 0.00 0.00 78 1003.0
20260504003411 32 0 0.0 0.0 0.00 0.00 0.00 85 1004.0
20260504002347 33 0 0.0 0.0 0.00 0.00 0.00 89 1004.0
20260504001323 31 0 0.0 0.0 0.00 0.00 0.00 97 1004.0
20260504000259 30 0 0.0 0.0 0.00 0.00 0.00 99 1005.0
20260503235235 28 0 0.0 0.0 0.00 0.00 0.00 99 1005.0
20260503234211 28 0 0.0 0.0 0.00 0.00 0.00 99 1005.0
20260503233147 27 0 0.0 0.0 0.00 0.00 0.00 99 1005.0
20260503232123 27 0 0.0 0.0 0.00 0.00 0.00 99 1004.0
20260503231059 27 0 0.0 0.0 0.00 0.00 0.00 99 1004.0
20260503230035 27 0 0.0 0.0 0.00 0.00 0.00 99 1004.0
20260503225011 27 0 0.0 0.0 0.00 0.00 0.00 99 1004.0
20260503223947 27 0 0.0 0.0 0.00 0.00 0.00 99 1004.0
20260503222923 28 0 0.0 0.0 0.00 0.00 0.00 99 1004.0
20260503221859 28 0 0.0 0.0 0.00 0.00 0.00 99 1004.0
20260503220835 28 0 0.0 0.0 0.00 0.00 0.00 99 1004.0
20260503215811 28 0 0.0 0.0 0.00 0.00 0.00 99 1004.0
20260503214747 28 0 0.0 0.0 0.00 0.00 0.00 99 1004.0
20260503213723 28 0 0.0 0.0 0.00 0.00 0.00 99 1004.0
20260503212659 28 0 0.0 0.0 0.00 0.00 0.00 99 1004.0
20260503211635 28 0 0.0 0.0 0.00 0.00 0.00 99 1004.0
20260503210611 28 0 0.0 0.0 0.00 0.00 0.00 99 1004.0
20260503205547 28 0 0.0 0.0 0.00 0.00 0.00 99 1003.0
20260503204523 28 0 0.0 0.0 0.00 0.00 0.00 99 1004.0
20260503203459 28 0 0.0 0.0 0.00 0.00 0.00 99 1004.0
20260503202435 28 0 0.0 0.0 0.00 0.00 0.00 99 1004.0
20260503201412 28 0 0.0 0.0 0.00 0.00 0.00 99 1003.0
20260503200347 28 0 0.0 0.0 0.00 0.00 0.00 99 1004.0
20260503195323 28 0 0.0 0.0 0.00 0.00 0.00 99 1004.0
20260503194259 28 0 0.0 0.0 0.00 0.00 0.00 99 1004.0
20260503193235 28 0 0.0 0.0 0.00 0.00 0.00 99 1004.0
20260503192211 28 0 0.0 0.0 0.00 0.00 0.00 99 1004.0
20260503191147 28 0 0.0 0.0 0.00 0.00 0.00 99 1004.0
20260503190123 28 0 0.0 0.0 0.00 0.00 0.00 99 1004.0
20260503185059 28 0 0.0 0.0 0.00 0.00 0.00 99 1004.0
20260503184035 28 0 0.0 0.0 0.00 0.00 0.00 99 1005.0